CW0795 Weather Reports


time (UTC)temp
F
wind
direction
speed
knots
gust
knots
rain 1hr
in
rain 24hr
in
rain mn
in
humidity
%
barometer
mb
20260504044532 40 255 0.0 0.0 0.00 0.00 0.00 88 1016.2
20260504043030 40 255 0.0 0.0 0.00 0.00 0.00 87 1016.3
20260504041529 40 255 0.0 0.0 0.00 0.00 0.00 86 1016.1
20260504040059 40 255 0.0 0.0 0.00 0.00 0.00 85 1016.0
20260504034529 41 255 0.0 0.0 0.00 0.00 0.00 84 1016.1
20260504024558 44 255 0.0 0.0 0.00 0.00 0.00 79 1015.9
20260504023027 44 255 0.0 0.0 0.00 0.00 0.00 77 1015.8
20260504021527 45 255 0.0 0.0 0.00 0.00 0.00 74 1015.8
20260504020056 46 255 0.0 0.0 0.00 0.00 0.00 70 1015.6
20260504014525 47 255 0.0 0.0 0.00 0.00 0.00 67 1015.3
20260504013025 48 255 0.0 0.0 0.00 0.00 0.00 63 1015.1
20260504011555 50 255 0.0 0.0 0.00 0.00 0.00 59 1014.8
20260504010055 51 255 0.0 0.0 0.00 0.00 0.00 56 1014.8
20260504004553 53 255 0.0 0.0 0.00 0.00 0.00 49 1014.9
20260504003053 55 255 0.0 0.0 0.00 0.00 0.00 45 1014.8
20260504001553 56 255 0.0 0.0 0.00 0.00 0.00 42 1014.8
20260504000052 58 255 0.0 0.0 0.00 0.00 0.00 38 1014.7
20260503234552 60 255 0.0 0.0 0.00 0.00 0.00 35 1014.6
20260503233051 61 255 0.0 1.7 0.00 0.00 0.00 33 1014.5
20260503231550 62 288 0.0 1.7 0.00 0.00 0.00 32 1014.4
20260503230051 62 203 0.9 3.5 0.00 0.00 0.00 33 1014.3
20260503224550 63 232 0.9 4.3 0.00 0.00 0.00 29 1014.4
20260503223050 63 252 1.7 6.1 0.00 0.00 0.00 29 1014.5
20260503221549 64 157 2.6 6.1 0.00 0.00 0.00 29 1014.5
20260503220049 65 229 0.9 4.3 0.00 0.00 0.00 28 1014.6
20260503214548 65 265 0.0 4.3 0.00 0.00 0.00 27 1014.5
20260503213048 65 302 2.6 7.8 0.00 0.00 0.00 29 1014.6
20260503210047 65 306 1.7 6.1 0.00 0.00 0.00 29 1014.5
20260503204546 65 319 1.7 6.1 0.00 0.00 0.00 30 1014.7
20260503203046 64 265 0.9 6.1 0.00 0.00 0.00 30 1014.7
20260503201546 64 232 1.7 6.1 0.00 0.00 0.00 33 1014.9
20260503200045 64 229 1.7 7.0 0.00 0.00 0.00 34 1015.1
20260503194545 63 279 0.9 8.7 0.00 0.00 0.00 36 1015.4
20260503193044 62 244 1.7 5.2 0.00 0.00 0.00 33 1015.7
20260503191544 62 193 2.6 7.8 0.00 0.00 0.00 33 1016.1
20260503190043 62 252 0.9 7.0 0.00 0.00 0.00 34 1016.4
20260503184543 61 277 0.9 7.0 0.00 0.00 0.00 36 1016.6
20260503183043 61 228 0.9 7.8 0.00 0.00 0.00 36 1016.5
20260503180042 59 244 7.8 7.8 0.00 0.00 0.00 38 1016.7
20260503174541 58 323 0.9 8.7 0.00 0.00 0.00 38 1016.9
20260503173041 58 271 2.6 6.1 0.00 0.00 0.00 39 1017.0
20260503171543 57 64 3.5 5.2 0.00 0.00 0.00 41 1017.2